Flag for U.S.A. Weather past 2 weeks in Jefferson City, Missouri, U.S.A.

Now
78 °F

Sunny.


Feels Like: 79 °F
Forecast: 64 / 82 °F
Wind: 12 mph from West

Location: Jefferson City Memorial Airport

Current Time: May 27, 2015 at 1:06:50 PM

Latest Report: May 27, 2015 at 11:53 AM


Visibility: 10 mi

Pressure: 30.04 "Hg

Humidity: 42%

Dew point: 53 °F

Location of Jefferson CityLocation

Historic Weather in Jefferson City — Graph

°F

Jefferson City temperature yesterday

Maximum temperature yesterday: 79 °F (at 5:53 PM)
Minimum temperature yesterday: 66 °F (at 4:53 AM)
Average temperature yesterday: 72 °F

Past Weeks' High & Low Weather Summary

 TemperatureHumidityPressure
High84 °F (May 25, 4:53 PM)97% (May 18, 6:00 AM)30.34 "Hg (May 18, 6:00 AM)
Low45 °F (May 21, 5:53 AM)28% (May 12, 3:53 PM)29.74 "Hg (May 26, 3:53 AM)
Average65 °F71%30.04 "Hg
* Reported May 12 11:53 AM — May 27 11:53 AM, Jefferson City, Weather by CustomWeather, © 2015

Note: Actual official high and low records may vary slightly from our data, if they occured in-between our weather recording intervals... More about our weather records

Advertising

Jefferson City weather history for previous 24 hours

 ConditionsComfort  
Time TempWeatherWind HumidityBarometerVisibility
11:53 AM
Wed, May 27
78 °FSunny.12 mph42%30.04 "Hg10 mi
10:53 AM75 °FSunny.12 mph58%30.04 "Hg10 mi
9:53 AM73 °FSunny.12 mph62%30.03 "Hg10 mi
8:53 AM70 °FSunny.7 mph76%30.02 "Hg9 mi
7:53 AM69 °FPassing clouds.3 mph76%30.01 "Hg10 mi
6:53 AM67 °FOvercast.8 mph79%30.01 "Hg10 mi
5:53 AM67 °FPartly cloudy.8 mph79%29.98 "Hg10 mi
4:53 AM67 °FMostly cloudy.5 mph81%29.96 "Hg10 mi
3:53 AM67 °FPassing clouds.6 mph81%29.94 "Hg10 mi
2:53 AM65 °FClear.5 mph87%29.91 "Hg10 mi
1:53 AM67 °FClear.No wind81%29.92 "Hg10 mi
12:53 AM69 °FClear.No wind76%29.90 "Hg10 mi
11:53 PM
Tue, May 26
70 °FClear.3 mph71%29.92 "Hg10 mi
10:53 PM71 °FClear.6 mph68%29.92 "Hg10 mi
9:53 PM72 °FClear.5 mph66%29.91 "Hg10 mi
8:53 PM74 °FSunny.7 mph62%29.88 "Hg10 mi
7:53 PM76 °FSunny.7 mph58%29.86 "Hg10 mi
6:53 PM78 °FSunny.15 mph52%29.86 "Hg10 mi
5:53 PM79 °FPassing clouds.16 mph50%29.85 "Hg10 mi
4:53 PM78 °FSunny.14 mph52%29.86 "Hg10 mi
3:53 PM78 °FScattered clouds.14 mph52%29.87 "Hg10 mi
2:53 PM78 °FPassing clouds.12 mph50%29.87 "Hg10 mi
1:53 PM76 °FScattered clouds.18 mph54%29.88 "Hg10 mi
Weather by CustomWeather, © 2015

See weather overviewHow to use our weather pages